Weather Roundup
Issued by NWS Chicago, IL

Home | Current Version | Previous Version | Text Only | Print | Product List | Glossary Off
Versions: 1 2 3 4 5 6 7 8 9 10 11 12 13 14 15 16 17 18 19 20 21 22 23 24 25 26 27 28 29 30 31 32 33 34 35 36 37 38 39 40 41 42 43 44 45 46 47 48 49 50

000
NZUS59 KLOT 051108
HRRLOT

CHICAGO AREA WEATHER ROUNDUP
NATIONAL WEATHER SERVICE CHICAGO/ROMEOVILLE IL
600 AM CDT TUE MAY 05 2015

NOTE: "FAIR" INDICATES FEW OR NO CLOUDS BELOW 12,000 FEET WITH NO
SIGNIFICANT WEATHER AND/OR OBSTRUCTIONS TO VISIBILITY.

* THESE STATIONS ARE NOT UNDER NWS QUALITY CONTROL. THEY ALSO MAY NOT
  REPORT WEATHER SUCH AS PRECIPITATION OR FOG.

ILZ005-006-012>014-019>023-051200-
NORTHEAST ILLINOIS

CITY           SKY/WX    TMP DP  RH WIND       PRES   REMARKS
OHARE          RAIN      49  48  97 NE6       30.21R FOG
MIDWAY         RAIN      53  52  96 N5        30.21R FOG
AURORA         LGT RAIN  53  49  86 NE14      30.19S FOG
LANSING*       HVY RAIN  49  47  92 NE5       30.21S
JOLIET*        LGT RAIN  55  54  97 CALM      30.19S
WAUKEGAN       LGT RAIN  47  44  90 NE6       30.23R
DUPAGE AIRPORT RAIN      51  49  92 NE8       30.21R FOG
WHEELING       HVY RAIN  49  46  90 N7        30.24R FOG
KANKAKEE*      CLOUDY    60  60  97 NE6       30.19R THUNDER FOG
MORRIS*        LGT RAIN  54  52  95 NE3       30.17R
LEWIS AIRPORT* RAIN      53  52  97 NE9       30.18F
NORTHERLY IS     N/A     48  46  93 N8          N/A
$$

WIZ051-052-058>065-066-070>072-051200-
SOUTHEAST WISCONSIN

CITY           SKY/WX    TMP DP  RH WIND       PRES   REMARKS
MILWAUKEE      LGT RAIN  44  39  82 NE12      30.24S
KENOSHA*       LGT RAIN  48  44  86 E13       30.23R
RACINE*        LGT RAIN  46  41  82 NE6       30.25S
BURLINGTON     LGT RAIN  47  44  91 E3        30.23R
WAUKESHA       CLOUDY    46  39  76 NE9       30.25R
WEST BEND      LGT RAIN  45  41  87 E5        30.26S
$$

INZ001>003-010>013-019-020-051200-
NORTHWEST INDIANA

CITY           SKY/WX    TMP DP  RH WIND       PRES   REMARKS
GARY*          RAIN      50 N/A N/A NE3       30.22R
MICHIGAN CITY* NOT AVBL
RENSSELAER*    NOT AVBL
VALPARAISO     RAIN      59  59 100 CALM      30.20R VSB 1
$$

LMZ740>746-051200-
SOUTHERN LAKE MICHIGAN

STATION/POSITION TIME  SKY/WX   TEMP WIND        PRES    VSBY
                                AIR  DIR/SP/G
                 (UTC)          (F)  (DEG/KT/KT) (MB)    (MI)
HARRISON CRIB    1000            48  360/  9/ 11   N/A
BURNHAM HARBOR   1100            48  360/  8/ 12   N/A
CALUMET HARBOR   1000            49  310/  4/  7   N/A
BURNS HARBOR     1040            48  310/  8/ 13 1023.7R
MICHIGAN CITY    1000            51   40/  7/  8   N/A
$$

ABBREVIATIONS USED IN REMARKS
   TC - TEMPERATURE IN CELSIUS
  WCI - WIND CHILL INDEX
   HX - HEAT INDEX
  VSB - VISIBILITY
$$


USA.gov is the U.S. government's official web portal to all federal, state and local government web resources and services.